Tracking 32963 objects as of 22-Jan-2026
HD Live streaming from Space Station
objects crossing your sky now

OBJECT B

Track OBJECT B now!


NORAD ID: 45986
Int'l Code: 2020-053B
Perigee: 35,784.1 km
Apogee: 35,803.6 km
Inclination: 0.0 °
Period: 1,436.1 minutes
Semi major axis: 42164 km
RCS: Unknown
Launch date: July 30, 2020
Source: Commonwealth of Independent States (former USSR) (CIS)
Launch site: TYURATAM MISSILE AND SPACE COMPLEX (TTMTR)

Note: This is a ROCKET BODY
Your satellite tracking list
Your tracking list is empty




NASA's NSSDC Master Catalog

Two Line Element Set (TLE):
1 45986U 20053B   26021.44232476 -.00000121  00000-0  00000+0 0  9999
2 45986   0.0183  55.9158 0002311 346.0727 318.0134  1.00271544 20157
Source of the keplerian elements: AFSPC